Location: Chamberlain Observatory
(39.0028°N, 90.1630°W)
Time: 13:49:19
(UTC-05:00)

Daily predictions for brighter satellites

Satellite Brightness Start Highest point End
(mag) Time Altitude Azimuth Time Altitude Azimuth Time Altitude Azimuth
Cosmos 2242 Rocket 4.0 20:44:28 10° N 20:48:48 45° E 20:53:04 10° SSE
COSMOS 2455 4.4 20:46:36 10° SE 20:49:27 14° ESE 20:52:18 10° ENE
OAO 2 Rocket 3.5 20:44:37 10° WSW 20:49:32 55° S 20:54:23 10° ESE
USA 215 3.8 20:44:05 10° ESE 20:50:22 52° NE 20:56:42 10° NW
NOSS 3-2 (C) 4.2 20:46:14 10° SSE 20:51:11 28° ESE 20:56:26 10° NE
Tiangong 2 2.4 20:50:18 10° WNW 20:53:23 41° N 20:56:28 10° ENE
Cosmos 2278 Rocket 3.9 20:51:47 10° SW 20:57:03 39° WNW 21:02:21 10° N
Resurs 01 Rocket 2.5 20:52:51 10° S 20:57:08 51° W 21:01:29 10° NNW
Cosmos 1707 Rocket 4.2 20:53:28 10° NNW 20:57:51 61° W 21:02:09 10° S
H-2A R/B 4.1 20:57:50 10° E 21:00:33 14° ENE 21:03:15 10° NNE
Hubble Space Telescope 2.5 20:58:41 10° SW 21:01:36 19° S 21:04:31 10° SE
COSMOS 2487 3.2 20:58:41 10° N 21:02:02 38° ENE 21:05:21 10° SE
Cosmos 1315 Rocket 2.9 21:00:23 10° S 21:04:16 55° E 21:08:15 10° NNE
Cosmos 1633 Rocket 3.7 21:02:23 10° SSW 21:06:43 62° W 21:11:06 10° N
SL-19 R/B 4.4 21:09:08 10° SSE 21:14:45 88° WSW 21:20:45 10° NNW
Cosmos 2298 Rocket 4.1 21:13:18 10° S 21:18:27 55° ESE 21:23:36 10° NNE
Cosmos 2150 Rocket 4.3 21:14:34 10° S 21:19:45 50° ESE 21:24:54 10° NNE
Cosmos 724 4.4 21:14:36 10° SSW 21:20:47 76° ESE 21:26:55 10° NNE
Spot 1 4.3 21:16:38 10° SSE 21:21:13 77° ENE 21:26:07 10° N
Cosmos 1933 Rocket 3.5 21:17:26 10° S 21:21:46 83° E 21:26:07 10° N
CENTAUR R/B 3.8 21:22:17 14° SE 21:24:04 15° ESE 21:27:33 10° ENE
Cosmos 1862 Rocket 3.6 21:21:37 10° N 21:26:08 80° E 21:30:36 10° S
Meteor 1-29 2.9 21:23:02 10° NNE 21:26:33 76° ESE 21:30:01 10° S
Cosmos 1937 Rocket 3.4 21:24:47 10° S 21:29:51 64° ESE 21:34:56 10° NNE
Cosmos 2082 Rocket 2.7 21:27:23 10° NNW 21:32:57 60° WSW 21:38:30 10° S
CZ-4B DEB 2.6 21:33:07 14° S 21:35:29 74° WSW 21:38:26 10° NNW
Cosmos 1939 Rocket 3.9 21:32:19 10° S 21:36:17 45° W 21:40:17 10° NNW
Cosmos 2346 Rocket 4.4 21:35:48 10° S 21:41:49 75° E 21:47:52 10° N
Cosmos 1933 4.0 21:38:07 10° NNW 21:42:03 53° W 21:45:57 10° S
MetOp-B 4.3 21:38:59 17° SSE 21:43:01 60° ENE 21:48:17 10° N
ARGOS 3.5 21:39:48 19° SE 21:43:31 49° ENE 21:48:41 10° N
Helios 1B rocket 3.4 21:42:08 10° N 21:46:07 49° WNW 21:50:05 10° SSW
YAOGAN 6 3.8 21:46:09 10° S 21:49:40 42° W 21:53:13 10° NNW
SAR-Lupe-4 4.0 21:47:01 16° S 21:49:46 60° WSW 21:53:20 10° NNW
ATLAS 3B R/B 4.5 21:45:07 10° WSW 21:51:54 37° NW 21:58:28 10° NNE
Cosmos 1833 Rocket 3.7 21:47:32 10° NW 21:52:48 42° WSW 21:58:03 10° S
Aureole 3 3.4 21:53:50 34° ESE 21:54:18 36° E 21:57:08 10° NNE
Cosmos 1825 3.2 21:54:54 26° E 21:55:16 26° E 21:58:28 10° NNE
Shenzhou-11 Module 2.9 21:52:24 10° WNW 21:55:23 44° N 21:56:59 22° ENE
SPOT 1/Viking Rocket 4.1 21:55:11 24° SE 21:57:47 42° ENE 22:02:41 10° N
Lacrosse 4 Rocket 4.1 21:58:00 10° NE 21:58:32 10° NE 21:59:05 10° NE
Cosmos 1892 3.3 21:55:41 10° SSW 21:59:29 57° W 22:03:18 10° N
Cosmos 1346 Rocket 2.8 21:56:05 10° N 22:00:02 81° W 22:02:16 25° S
Cosmos 1703 Rocket 3.5 21:57:55 10° N 22:02:22 74° E 22:04:35 29° SSE
GPS 2-04 Rocket1 3.1 21:59:44 10° SW 22:02:41 33° S 22:02:41 33° S
SPOT 5 3.1 22:02:29 26° SSE 22:05:33 69° ENE 22:10:53 10° N
ERS-1 Rocket 3.3 22:03:07 17° S 22:06:56 65° WSW 22:11:57 10° NNW
Okean 1-7 3.1 22:06:36 10° N 22:10:59 61° E 22:12:30 37° SE
Cosmos 2221 Rocket 3.5 22:09:58 10° N 22:14:24 69° E 22:15:59 38° SSE
Terra 2.9 22:14:17 25° E 22:15:31 29° ENE 22:19:35 10° N
Cosmos 1408 2.6 22:17:38 52° SE 22:18:05 57° E 22:21:44 10° NNE
Cosmos 1733 Rocket 4.3 22:18:57 24° E 22:18:57 24° E 22:22:11 10° NE
BREEZE-M DEB (TANK) 4.2 22:16:47 10° NW 22:20:09 43° NNE 22:32:30 10° ESE
Cosmos 1869 Rocket 3.5 22:17:54 24° SSW 22:20:26 80° W 22:24:48 10° N
Cosmos 1634 Rocket 4.2 22:16:13 10° NNW 22:22:27 71° W 22:26:55 20° S
NOSS 3-2 (A) 4.5 22:18:32 10° WSW 22:24:18 48° NW 22:30:39 10° NNE
Cosmos 1943 Rocket 2.4 22:25:37 37° SSE 22:27:08 46° ESE 22:32:26 10° NE
Cosmos 2369 Rocket 2.1 22:23:57 10° SSW 22:29:33 88° ESE 22:35:16 10° NNE
Cosmos 1782 2.7 22:25:35 10° N 22:29:37 82° E 22:30:19 59° SSE
IGS 5A 4.3 22:29:21 33° E 22:29:41 34° ENE 22:33:26 10° N
Tiangong 2 1.6 22:27:27 10° WNW 22:30:38 54° NNE 22:30:49 53° NNE
Cosmos 1606 2.5 22:27:49 10° N 22:31:37 77° E 22:31:56 70° SE
USA 215 3.8 22:30:05 27° S 22:33:22 46° SW 22:39:39 10° WNW
OAO 2 Rocket 3.8 22:29:22 10° W 22:33:58 38° SSW 22:34:14 38° S
YAOGAN 11 4.5 22:32:26 35° S 22:34:12 63° WSW 22:38:44 10° NNW
COSMOS 2455 2.9 22:28:33 10° SSW 22:34:33 83° WNW 22:40:37 10° NNE
Cosmos 1340 3.0 22:31:31 10° N 22:35:05 48° ENE 22:35:05 48° ENE
Meteor 2-6 Rocket 4.3 22:29:20 10° N 22:35:17 80° E 22:37:41 39° SSE
Cosmos 1125 Rocket 3.4 22:34:35 37° S 22:36:38 70° ESE 22:41:51 10° NNE
Nimbus 7 Rocket 4.3 22:31:28 10° NNE 22:37:24 89° WNW 22:41:14 23° SSW
H-2A R/B 2.2 22:37:00 37° S 22:39:16 78° WSW 22:44:42 10° NNW
Nadezhda 4 Rocket 4.2 22:38:11 39° SE 22:40:02 52° E 22:46:00 10° NNE
NOSS 3-2 (C) 4.4 22:35:54 10° WSW 22:41:41 48° NW 22:48:03 10° NNE
Cosmos 1862 3.4 22:43:34 61° ENE 22:43:34 61° ENE 22:47:19 10° NNE
SL-08 RB Rocket 4.4 22:43:07 32° SSW 22:44:54 49° W 22:49:27 10° NNW
Milstar 3 3.7 22:37:06 10° SW 22:44:55 31° S 22:44:55 31° S
H-2A ROCKET BODY 3.6 22:41:29 10° SW 23:08:45 - ESE 22:44:55 30° S
CARTOSAT-1 3.6 22:48:23 60° E 22:48:38 62° ENE 22:52:55 10° N
Cosmos 372 Rocket 3.8 22:48:18 50° S 22:49:37 76° ESE 22:54:44 10° NNE
Cosmos 1674 Rocket 4.2 22:51:38 10° N 22:55:23 40° ENE 22:55:23 40° ENE
Cosmos 2279 Rocket 4.4 22:56:11 10° NNW 23:02:18 58° W 23:05:04 32° SSW
H-2A R/B 2.3 23:06:50 55° NE 23:06:50 55° NE 23:10:27 10° N
Intercosmos 25 Rocket 4.3 22:58:34 10° N 23:06:59 80° E 23:08:12 57° SSE
ATLAS 5 CENTAUR R/B 2.8 23:05:46 10° NNW 23:11:41 55° NE 23:13:20 44° E
Cosmos 2084 3.7 23:08:08 10° NW 23:11:16 56° NW 23:11:16 56° NW
CENTAUR R/B 2.5 23:09:18 20° SW 23:13:37 79° NW 23:20:26 10° NNE
GEOS 3 Rocket 4.1 23:15:50 44° SW 23:16:24 46° WSW 23:21:24 10° NW
Lacrosse 5 rocket 2.7 23:26:45 29° NNE 23:26:45 29° NNE 23:28:52 10° NNE
Cosmos 1908 Rocket 4.3 23:27:08 47° NE 23:27:08 47° NE 23:30:31 10° NNE
BREEZE-M DEB (TANK) 3.8 23:29:56 48° E 23:29:56 48° E 23:39:57 10° ENE
Cosmos 2344 3.7 23:27:17 13° SW 23:34:15 78° NW 23:42:43 10° NNE
Cosmos 2219 4.1 23:30:48 10° N 23:36:05 36° ENE 23:36:47 35° ENE
Cosmos 1656 Rocket 3.5 23:36:21 76° ENE 23:36:21 76° ENE 23:41:36 10° NNE
deb Chang Zheng 4 3.9 23:31:58 10° N 23:36:00 65° NW 23:36:00 65° NW
Sich 1 Rocket 4.2 23:37:33 51° NNE 23:37:33 51° NNE 23:40:58 10° N
Cosmos 2227 Rocket 4.4 23:33:54 10° NNE 23:36:43 14° NE 23:38:57 11° ENE
Lacrosse 4 Rocket 2.0 23:33:30 10° NNW 23:37:14 59° N 23:37:14 59° N
Cosmos 1812 4.5 23:35:17 10° N 23:37:24 27° NNE 23:37:24 27° NNE
Cosmos 2251 Rocket 3.8 23:42:15 10° N 23:47:07 56° NE 23:47:07 56° NE
CZ-4B R/B 3.5 23:44:58 10° N 23:49:48 70° NW 23:49:48 70° NW
Terra 3.3 23:53:10 28° W 23:53:11 28° W 23:57:16 10° NW
